Presure
142 139 145 141 155 140 166 155 172 154 158 144 95 156 164 156 176 198 182 183 177 196 196 152 174 205 222 234 248 243 252 250 237 216 167 181 243 259
154 157 100 114 164 163 149 146 162 150 170 164 166 184 186 187 178 188 189 203 200 189 218 208 238 245 256 259 196 254 214 186 195 268 265 267 264 260
141 138 141 142 158 160 166 172 168 181 195 188 166 166 201 189 186 190 203 223 240 242 254 260 266 264 205 170 269 172 225 253 261 264 266 240 270 298
135 153 151 151 168 169 164 190 193 194 194 201 202 203 210 220 229 169 239 242 262 258 266 150 267 268 137 248 260 214 271 266 270 306 276 200 286 258
155 154 175 157 194 179 206 184 164 203 197 173 164 232 231 241 249 250 258 255 183 244 269 268 268 227 259 261 260 258 286 313 295 252 264 267 302 316
162 164 178 161 193 193 193 189 212 213 211 224 207 246 248 246 246 247 257 301 283 275 273 269 262 263 274 271 247 280 270 278 270 268 321 316 333 341
161 166 196 164 160 195 182 203 224 222 226 228 256 264 269 271 266 268 284 297 293 279 325 274 266 296 268 284 279 280 321 304 318 310 330 328 334 324
191 155 153 189 218 200 221 226 234 229 249 259 274 287 296 310 316 320 295 294 424 401 364 351 324 278 341 350 330 324 300 328 321 350 334 337 315 303
166 194 201 165 215 217 229 236 240 251 267 277 311 316 318 327 377 387 410 347 404 369 338 344 333 316 315 322 291 322 319 309 329 329 328 319 306 306
198 214 214 208 225 237 243 266 275 286 284 317 298 413 386 412 406 418 393 349 335 318 315 307 313 305 302 299 310 308 308 310 336 327 316 307 301 304
195 209 222 230 239 251 265 274 280 291 311 313 342 367 378 402 362 362 346 328 324 308 302 303 316 296 301 313 296 308 298 334 312 306 296 300 307 322
206 223 229 247 265 264 277 283 299 317 306 302 354 363 418 445 373 343 331 316 312 310 296 309 292 308 311 298 302 328 324 312 306 311 304 310 325 294
235 237 260 273 282 283 299 302 293 310 328 348 322 336 340 378 356 336 312 320 299 306 316 312 327 295 299 307 332 307 307 308 308 313 313 320 293 282
251 276 285 297 299 300 297 303 279 309 314 332 326 323 323 328 328 327 324 306 315 297 296 298 297 302 318 327 313 307 304 313 322 314 314 298 279 275
278 306 320 299 295 304 355 340 326 308 322 318 321 314 313 324 312 320 320 304 302 298 301 305 332 331 323 313 303 304 309 359 349 317 302 279 271 266
303 290 281 295 302 349 350 340 325 338 320 293 311 331 331 332 329 328 326 326 325 330 326 324 318 315 311 298 302 308 360 330 315 300 280 268 261 256
285 309 341 327 412 314 487 438 397 338 333 319 293 296 327 316 320 307 320 316 311 312 313 311 307 304 300 305 303 325 330 313 296 278 267 261 255 253
305 365 412 454 438 482 435 393 371 351 324 310 301 279 304 315 298 318 302 307 310 329 354 369 379 373 320 307 312 334 309 295 276 267 258 253 253 242
354 364 423 378 402 456 396 363 349 328 315 294 307 293 314 324 316 304 301 312 322 356 357 373 389 374 309 314 330 309 295 278 265 261 251 253 249 247
459 432 490 472 392 404 365 347 334 319 307 307 291 310 297 314 307 299 305 304 355 345 338 339 335 323 323 323 309 293 279 265 262 243 255 247 247 251
442 443 482 459 422 371 350 335 322 311 298 296 292 295 314 304 301 301 296 307 342 327 317 318 310 318 311 302 290 279 267 257 248 249 251 240 241 241
422 517 442 430 382 353 334 329 319 303 304 289 293 307 299 295 299 302 298 333 327 314 316 303 303 300 293 287 278 269 259 252 243 243 247 244 236 237
410 447 430 397 365 349 331 320 314 299 297 287 292 302 300 294 304 290 307 355 317 310 309 294 299 291 281 277 271 262 250 250 248 243 252 244 242 238
Wind_Speed
90 91 96 93 99 85 105 109 105 106 99 107 60 112 119 115 125 122 126 125 124 127 128 84 103 127 131 131 123 123 117 115 117 99 94 77 115 109
93 94 56 69 105 108 108 108 113 102 108 114 116 116 119 119 124 128 129 130 131 122 137 134 135 128 120 117 98 118 100 76 91 108 109 108 108 108
100 100 105 106 107 108 112 114 120 121 116 112 122 123 122 123 126 127 132 134 136 135 131 128 125 119 108 86 114 71 102 108 112 112 110 104 107 93
99 108 110 114 116 119 122 118 119 119 122 122 125 128 132 135 135 96 136 133 130 131 132 80 117 114 76 116 116 96 116 113 109 96 102 89 98 88
110 114 117 121 121 119 123 121 133 128 130 135 87 134 136 139 135 134 134 134 99 128 123 119 117 107 117 115 113 114 109 86 85 100 92 100 80 74
116 118 119 126 124 125 126 133 133 135 137 143 137 143 139 137 137 138 138 120 125 114 119 118 116 118 115 112 105 106 102 100 104 101 77 72 60 45
121 122 126 131 128 131 136 135 143 145 145 148 143 140 139 134 129 131 117 114 111 108 107 110 113 106 107 101 102 99 71 79 73 74 64 55 39 38
123 127 118 128 140 130 144 145 148 145 147 142 137 136 128 124 121 120 96 102 52 53 64 67 76 98 56 56 71 73 72 60 59 46 44 38 34 36
124 130 136 129 145 146 149 148 149 151 143 138 136 119 117 103 80 62 37 69 34 43 43 39 42 50 57 54 62 61 56 50 51 38 34 32 32 31
135 146 146 144 152 153 153 149 140 136 133 131 114 71 74 55 44 29 25 29 32 45 48 51 47 53 56 57 54 52 49 48 35 30 28 28 27 24
133 149 156 153 153 153 150 144 140 136 129 120 100 67 59 41 40 23 25 34 39 47 50 50 51 53 54 50 50 55 45 38 32 31 30 28 24 20
150 155 157 158 150 145 141 141 137 125 120 112 68 59 36 27 29 26 32 39 42 46 47 49 46 53 56 48 49 40 36 34 32 30 30 25 20 24
156 156 152 145 141 137 136 126 114 117 87 63 75 56 47 29 32 32 35 42 42 46 49 45 39 43 44 44 34 33 36 36 33 29 28 21 24 24
154 143 138 134 130 126 124 119 98 100 88 66 56 52 46 37 31 33 43 42 43 39 40 39 41 45 46 34 32 34 35 33 28 26 22 26 25 24
140 133 123 119 118 124 77 82 87 86 66 61 49 48 46 37 38 37 37 40 42 42 42 43 40 31 29 28 33 31 29 23 24 25 28 28 27 22
131 121 118 118 117 89 79 77 77 61 60 68 49 40 36 34 35 33 35 37 37 36 36 34 30 27 28 29 27 22 18 26 28 32 31 30 27 23
120 120 105 101 77 96 32 34 38 49 40 43 55 44 31 33 31 34 28 30 33 34 35 36 35 33 32 29 23 21 28 30 35 33 32 29 26 22
123 97 74 48 41 24 22 21 23 26 34 36 40 47 35 33 33 25 32 31 34 36 29 27 28 30 30 26 24 29 32 37 35 33 32 28 25 24
91 84 54 55 38 22 21 22 21 25 30 39 30 35 30 23 24 28 29 31 29 22 17 13 13 19 25 26 30 34 37 37 34 33 29 28 25 24
53 51 33 24 28 25 25 24 24 26 29 27 32 28 28 23 24 27 26 25 20 11 11 14 20 24 25 29 34 37 39 36 34 28 29 27 24 21
43 36 23 22 29 31 30 28 27 28 30 28 28 26 23 24 24 23 23 23 14 12 14 20 22 25 30 34 38 40 39 36 33 30 27 27 23 23
37 23 22 28 36 34 33 32 29 29 26 28 26 24 25 25 22 19 22 21 14 15 18 23 25 30 34 36 39 41 39 36 32 29 30 28 25 24
31 21 26 37 39 41 36 32 29 30 27 27 24 23 23 22 20 21 20 14 16 19 23 24 27 34 35 37 39 38 36 36 33 30 29 30 29 26
Wind_Direction
291 293 290 292 291 295 289 290 294 291 291 293 287 293 289 291 290 293 289 289 290 289 288 285 283 288 290 289 289 286 286 285 285 282 278 286 283 281
286 290 285 289 292 290 291 293 292 292 289 288 288 290 289 290 289 290 290 292 290 289 290 290 289 291 293 290 287 290 286 287 290 286 285 283 283 283
287 292 290 291 296 295 293 293 291 292 296 293 291 292 294 288 287 290 290 291 293 291 293 294 294 292 283 287 289 287 286 287 287 287 287 286 288 287
291 288 289 289 295 293 291 296 298 297 294 299 299 296 296 295 296 287 296 294 294 293 295 284 291 290 285 288 290 288 287 288 290 290 290 288 289 291
291 290 297 291 302 296 302 295 294 301 299 294 294 299 298 297 296 297 298 297 290 293 292 290 289 287 287 288 290 290 290 288 290 297 289 291 286 286
292 294 298 292 303 302 301 299 302 302 301 303 301 300 300 299 297 296 293 293 289 286 285 284 286 285 283 283 290 286 287 287 284 287 282 284 287 282
292 293 306 290 294 302 295 304 305 305 304 303 302 299 298 294 292 290 287 289 288 281 282 279 280 282 280 282 284 285 277 281 283 285 282 286 276 275
305 292 297 299 307 303 306 307 304 304 304 303 301 299 297 297 295 292 286 289 274 274 270 271 273 280 275 266 270 272 280 283 286 282 278 272 268 271
298 303 305 297 307 308 305 303 304 303 303 301 303 300 304 297 289 290 285 281 273 270 275 265 267 271 276 277 281 281 284 284 289 275 266 261 265 270
307 309 307 308 306 303 305 303 304 302 303 305 307 298 296 295 289 262 263 267 257 264 269 271 262 267 274 280 278 282 284 287 269 265 259 260 263 261
306 310 306 306 306 304 304 303 305 305 306 308 309 304 301 291 283 249 242 247 247 258 268 270 259 277 276 277 279 283 281 276 266 264 265 267 262 238
307 305 307 304 303 303 303 303 303 305 307 308 305 301 293 271 234 240 245 256 255 258 269 265 275 275 272 273 279 279 270 264 261 257 257 259 234 203
305 304 303 304 303 303 302 303 305 305 302 299 305 304 307 283 242 243 273 250 271 265 263 266 268 266 273 280 274 268 264 259 259 256 243 231 196 200
304 303 302 301 301 302 303 302 302 303 300 299 301 301 300 298 284 265 251 264 262 274 275 276 277 279 281 271 256 258 261 265 253 230 216 189 194 197
303 303 302 303 304 305 290 291 294 297 292 292 292 294 293 290 286 266 262 272 275 275 277 279 276 263 256 250 252 258 262 261 214 203 183 184 189 193
304 304 303 305 305 297 289 287 288 285 286 293 286 284 282 275 272 272 270 271 273 271 271 271 266 256 246 249 256 259 259 196 189 178 178 185 195 199
301 304 301 301 293 299 266 267 277 284 271 273 288 287 272 278 270 283 277 272 275 277 273 266 257 250 244 245 241 251 193 185 174 175 181 189 195 199
304 301 299 296 291 260 240 250 262 258 256 260 274 289 279 271 283 274 279 285 285 285 279 268 257 242 231 226 226 196 187 173 175 179 188 193 196 211
301 302 302 297 285 227 216 230 235 240 248 267 262 276 267 261 267 276 286 296 296 289 270 250 200 190 213 210 190 184 173 174 180 184 196 194 204 215
301 302 289 264 269 207 209 218 223 233 241 251 266 259 271 262 268 280 291 295 297 257 222 190 177 179 180 179 177 174 172 178 182 205 192 202 210 216
297 295 268 235 202 205 207 214 218 226 247 249 261 265 254 264 273 284 285 296 269 224 200 184 183 176 172 172 173 172 175 180 193 197 195 208 212 220
296 271 242 212 200 210 218 213 218 228 234 252 256 247 258 266 275 281 280 293 235 211 195 183 180 177 175 175 174 175 180 187 202 206 204 210 223 229
291 248 218 204 203 204 214 215 215 230 232 251 249 244 254 266 272 270 285 241 214 197 186 185 182 181 180 179 178 181 190 195 203 213 210 216 223 234